THOR BURNER 2 R/B, 2985

Orbit data source: Space-Track

THOR BURNER 2 R/B, 2985 is space debris in SSO originally from a launch on Wed, 11 Oct 1967 UTC launched from the Air Force Western Test Range (AFWTR). Debris objects in space refer to the collection of defunct objects orbiting the Earth. Examples of debris include non-operational satellites, rocket bodies, and fragments generated from explosions, collisions, or faulty payload assembly.

Loading next visibility...
Identifier
2985, 1967-096B
Orbit
SSO
Country
Flag of USUS
Related business
Manufacturer
Thiokol/TE
Mission
Spacecraft
Bus & Motor
STAR 37, Unknown motor
Mass
154 kg wet, 154 kg dry
Launch date (UTC)
1967-10-11 (58 years ago)
Launch vehicle
Unknown
Launch site
Air Force Western Test Range (AFWTR)
Object type
Payload
Rocket body
Debris
Shape & HBR
Sphere + Cone + 1 Truss, 0.8 m
Radar Cross Section
2.181 m², Large (>1 m²)

Expand to show TLE details & history
Last TLE update: 22 hours ago

TLE from 22 hours ago
0 THOR BURNER 2 R/B
1 02985U 67096B   25259.95702710  .00000621  00000-0  11163-3 0  9990
2 02985  99.1736 257.1177 0083063 186.2546 173.7627 14.68886600 53078
Epoch: 2025-09-16T22:58Z
TLE epoch observation values (Epoch: 2025-09-16T22:58:07.141Z)
Latitude
0.00003°
Longitude
-83.55194°
Altitude
725.761 km
Speed
7.461 km/s
True Right ascension
17h 08m 28s
True Declination
0° 00' 00"
Sunlit
Object was in daylight at epoch
Visualization orbit readout
Latitude
Unknown
Longitude
Unknown
Altitude
Unknown
Speed
Unknown
Apparent Right ascension
Unknown
Apparent Declination
Unknown
Sunlit
N/A
Visualization observer readout
Local Sidereal Time
13:25:39
Azimuth
Unknown
Elevation
Unknown
Doppler factor
Unknown
Orbital elements
Apogee altitude
720.217 km
Perigee altitude
603.266 km
Semi-major axis
7,039.878 km
Eccentricity
0.00831
Inclination
99.1736°
RAAN
257.1177°
Arg. of periapsis
186.2546°
True anomaly
173.86506°
Mean anomaly
173.7627°
Eccentric anomaly
173.81398°
Mean motion
3.67448 °/min
Orbital period
97.97 mins
BSTAR
0.00011163
Loading maneuver chart data...
Computing Atmospheric mass density...
Loading historical data...
Loading historical data...
Loading historical data...
Loading historical data...
Loading historical data...
Loading historical data...
Loading historical data...
Other satellites on launch #96 in the year 1967 (1967-10-11 UTC)

Documentation

Showing up to 5 results
|